Time,TemperatureF,DewpointF,PressureIn,WindDirection,WindDirectionDegrees,WindSpeedMPH,WindSpeedGustMPH,Humidity,HourlyPrecipIn,Conditions,Clouds,dailyrainin,SoftwareType,DateUTC
2013-02-07 00:00:00,46.6,32.1,30.09,North,0,0.0,0.0,57,0.00,,,0.00,WUHU216HW,2013-02-07 05:00:00,
2013-02-07 00:01:00,46.6,32.1,30.09,North,0,0.0,0.0,57,0.00,,,0.00,WUHU216HW,2013-02-07 05:01:00,
2013-02-07 00:06:00,46.8,31.9,30.09,North,0,0.0,0.0,56,0.00,,,0.00,WUHU216HW,2013-02-07 05:06:00,
2013-02-07 00:11:00,47.2,31.8,30.09,North,0,0.0,0.0,55,0.00,,,0.00,WUHU216HW,2013-02-07 05:11:00,
2013-02-07 00:16:00,47.3,31.9,30.09,North,0,0.0,0.0,55,0.00,,,0.00,WUHU216HW,2013-02-07 05:16:00,
2013-02-07 00:21:00,47.5,31.6,30.09,North,0,0.0,0.0,54,0.00,,,0.00,WUHU216HW,2013-02-07 05:21:00,
2013-02-07 00:27:00,47.7,31.8,30.10,North,0,0.0,0.0,54,0.00,,,0.00,WUHU216HW,2013-02-07 05:27:00,
2013-02-07 00:32:00,47.7,31.8,30.10,North,0,0.0,0.0,54,0.00,,,0.00,WUHU216HW,2013-02-07 05:32:00,
2013-02-07 00:37:00,47.9,31.5,30.10,North,0,0.0,0.0,53,0.00,,,0.00,WUHU216HW,2013-02-07 05:37:00,
2013-02-07 00:42:00,47.9,31.5,30.10,North,0,0.0,0.0,53,0.00,,,0.00,WUHU216HW,2013-02-07 05:42:00,
2013-02-07 00:47:00,48.1,31.7,30.10,North,0,0.0,0.0,53,0.00,,,0.00,WUHU216HW,2013-02-07 05:47:00,
2013-02-07 00:52:00,48.1,31.2,30.09,North,0,0.0,0.0,52,0.00,,,0.00,WUHU216HW,2013-02-07 05:52:00,
2013-02-07 00:57:00,48.1,31.2,30.10,North,0,0.0,0.0,52,0.00,,,0.00,WUHU216HW,2013-02-07 05:57:00,
2013-02-07 01:02:00,48.1,31.2,30.09,North,0,0.0,0.0,52,0.00,,,0.00,WUHU216HW,2013-02-07 06:02:00,
2013-02-07 01:07:00,48.2,31.3,30.09,North,0,0.0,0.0,52,0.00,,,0.00,WUHU216HW,2013-02-07 06:07:00,
2013-02-07 01:12:00,48.2,30.9,30.10,North,0,0.0,0.0,51,0.00,,,0.00,WUHU216HW,2013-02-07 06:12:00,
2013-02-07 01:17:00,48.2,30.9,30.10,North,0,0.0,0.0,51,0.00,,,0.00,WUHU216HW,2013-02-07 06:17:00,
2013-02-07 01:22:00,48.2,30.9,30.10,North,0,0.0,0.0,51,0.00,,,0.00,WUHU216HW,2013-02-07 06:22:00,
2013-02-07 01:27:00,48.2,30.9,30.10,North,0,0.0,0.0,51,0.00,,,0.00,WUHU216HW,2013-02-07 06:27:00,
2013-02-07 01:32:00,48.1,30.7,30.10,North,0,0.0,0.0,51,0.00,,,0.00,WUHU216HW,2013-02-07 06:32:00,
2013-02-07 01:37:00,47.9,30.6,30.10,North,0,0.0,0.0,51,0.00,,,0.00,WUHU216HW,2013-02-07 06:37:00,
2013-02-07 01:42:00,47.9,30.6,30.11,North,0,0.0,0.0,51,0.00,,,0.00,WUHU216HW,2013-02-07 06:42:00,
2013-02-07 01:48:00,47.9,31.1,30.11,North,0,0.0,0.0,52,0.00,,,0.00,WUHU216HW,2013-02-07 06:48:00,
2013-02-07 01:53:00,47.7,30.9,30.11,North,0,0.0,0.0,52,0.00,,,0.00,WUHU216HW,2013-02-07 06:53:00,
2013-02-07 01:58:00,47.7,30.9,30.11,North,0,0.0,0.0,52,0.00,,,0.00,WUHU216HW,2013-02-07 06:58:00,
2013-02-07 02:03:00,47.5,30.7,30.11,North,0,0.0,0.0,52,0.00,,,0.00,WUHU216HW,2013-02-07 07:03:00,
2013-02-07 02:08:00,47.5,30.7,30.11,North,0,0.0,0.0,52,0.00,,,0.00,WUHU216HW,2013-02-07 07:08:00,
2013-02-07 02:13:00,47.5,30.7,30.11,North,0,0.0,0.0,52,0.00,,,0.00,WUHU216HW,2013-02-07 07:13:00,
2013-02-07 02:18:00,47.5,30.7,30.11,North,0,0.0,0.0,52,0.00,,,0.00,WUHU216HW,2013-02-07 07:18:00,
2013-02-07 02:23:00,47.5,30.7,30.10,North,0,0.0,0.0,52,0.00,,,0.00,WUHU216HW,2013-02-07 07:23:00,
2013-02-07 02:28:00,47.3,30.5,30.10,North,0,0.0,0.0,52,0.00,,,0.00,WUHU216HW,2013-02-07 07:28:00,
2013-02-07 02:33:00,47.2,30.3,30.10,North,0,0.0,0.0,52,0.00,,,0.00,WUHU216HW,2013-02-07 07:33:00,
2013-02-07 02:38:00,47.2,30.3,30.10,North,0,0.0,0.0,52,0.00,,,0.00,WUHU216HW,2013-02-07 07:38:00,
2013-02-07 02:43:00,47.2,30.3,30.10,North,0,0.0,0.0,52,0.00,,,0.00,WUHU216HW,2013-02-07 07:43:00,
2013-02-07 02:48:00,47.2,30.3,30.11,North,0,0.0,0.0,52,0.00,,,0.00,WUHU216HW,2013-02-07 07:48:00,
2013-02-07 02:53:00,47.2,30.3,30.11,North,0,0.0,0.0,52,0.00,,,0.00,WUHU216HW,2013-02-07 07:53:00,
2013-02-07 02:58:00,47.2,30.3,30.11,North,0,0.0,0.0,52,0.00,,,0.00,WUHU216HW,2013-02-07 07:58:00,
2013-02-07 03:04:00,47.2,30.8,30.11,North,0,0.0,0.0,53,0.00,,,0.00,WUHU216HW,2013-02-07 08:04:00,
2013-02-07 03:08:00,47.2,30.8,30.11,North,0,0.0,0.0,53,0.00,,,0.00,WUHU216HW,2013-02-07 08:08:00,
2013-02-07 03:14:00,47.2,30.8,30.11,North,0,0.0,0.0,53,0.00,,,0.00,WUHU216HW,2013-02-07 08:14:00,
2013-02-07 03:19:00,47.0,30.7,30.11,North,0,0.0,0.0,53,0.00,,,0.00,WUHU216HW,2013-02-07 08:19:00,
2013-02-07 03:24:00,47.0,30.7,30.11,North,0,0.0,0.0,53,0.00,,,0.00,WUHU216HW,2013-02-07 08:24:00,
2013-02-07 03:29:00,46.8,30.5,30.10,North,0,0.0,0.0,53,0.00,,,0.00,WUHU216HW,2013-02-07 08:29:00,
2013-02-07 03:34:00,46.8,30.5,30.10,North,0,0.0,0.0,53,0.00,,,0.00,WUHU216HW,2013-02-07 08:34:00,
2013-02-07 03:39:00,46.6,30.8,30.10,North,0,0.0,0.0,54,0.00,,,0.00,WUHU216HW,2013-02-07 08:39:00,
2013-02-07 03:44:00,46.6,30.8,30.10,North,0,0.0,0.0,54,0.00,,,0.00,WUHU216HW,2013-02-07 08:44:00,
2013-02-07 03:49:00,46.4,31.1,30.10,North,0,0.0,0.0,55,0.00,,,0.00,WUHU216HW,2013-02-07 08:49:00,
2013-02-07 03:54:00,46.4,31.1,30.10,North,0,0.0,0.0,55,0.00,,,0.00,WUHU216HW,2013-02-07 08:54:00,
2013-02-07 03:59:00,46.4,31.1,30.10,North,0,0.0,0.0,55,0.00,,,0.00,WUHU216HW,2013-02-07 08:59:00,
2013-02-07 04:04:00,46.3,31.3,30.10,North,0,0.0,0.0,56,0.00,,,0.00,WUHU216HW,2013-02-07 09:04:00,
2013-02-07 04:09:00,46.3,31.3,30.10,North,0,0.0,0.0,56,0.00,,,0.00,WUHU216HW,2013-02-07 09:09:00,
2013-02-07 04:14:00,46.1,31.1,30.11,North,0,0.0,0.0,56,0.00,,,0.00,WUHU216HW,2013-02-07 09:14:00,
2013-02-07 04:19:00,45.9,31.5,30.11,North,0,0.0,0.0,57,0.00,,,0.00,WUHU216HW,2013-02-07 09:19:00,
2013-02-07 04:24:00,45.7,30.9,30.12,North,0,0.0,0.0,56,0.00,,,0.00,WUHU216HW,2013-02-07 09:24:00,
2013-02-07 04:29:00,45.7,31.3,30.12,North,0,0.0,0.0,57,0.00,,,0.00,WUHU216HW,2013-02-07 09:29:00,
2013-02-07 04:34:00,45.7,31.3,30.12,North,0,0.0,0.0,57,0.00,,,0.00,WUHU216HW,2013-02-07 09:34:00,
2013-02-07 04:39:00,45.5,31.1,30.12,North,0,0.0,0.0,57,0.00,,,0.00,WUHU216HW,2013-02-07 09:39:00,
2013-02-07 04:45:00,45.5,31.1,30.13,North,0,0.0,0.0,57,0.00,,,0.00,WUHU216HW,2013-02-07 09:45:00,
2013-02-07 04:50:00,45.4,31.0,30.13,North,0,0.0,0.0,57,0.00,,,0.00,WUHU216HW,2013-02-07 09:50:00,
2013-02-07 04:55:00,45.4,31.4,30.13,North,0,0.0,0.0,58,0.00,,,0.00,WUHU216HW,2013-02-07 09:55:00,
2013-02-07 05:00:00,45.4,31.4,30.13,North,0,0.0,0.0,58,0.00,,,0.00,WUHU216HW,2013-02-07 10:00:00,
2013-02-07 05:05:00,45.2,31.2,30.13,North,0,0.0,0.0,58,0.00,,,0.00,WUHU216HW,2013-02-07 10:05:00,
2013-02-07 05:10:00,45.2,31.7,30.13,North,0,0.0,0.0,59,0.00,,,0.00,WUHU216HW,2013-02-07 10:10:00,
2013-02-07 05:15:00,45.0,31.2,30.14,North,0,0.0,0.0,58,0.00,,,0.00,WUHU216HW,2013-02-07 10:15:00,
2013-02-07 05:20:00,45.0,31.6,30.14,North,0,0.0,0.0,59,0.00,,,0.00,WUHU216HW,2013-02-07 10:20:00,
2013-02-07 05:25:00,45.0,31.6,30.14,North,0,0.0,0.0,59,0.00,,,0.00,WUHU216HW,2013-02-07 10:25:00,
2013-02-07 05:30:00,44.8,31.4,30.14,North,0,0.0,0.0,59,0.00,,,0.00,WUHU216HW,2013-02-07 10:30:00,
2013-02-07 05:35:00,44.6,31.2,30.14,North,0,0.0,0.0,59,0.00,,,0.00,WUHU216HW,2013-02-07 10:35:00,
2013-02-07 05:40:00,44.6,31.2,30.14,North,0,0.0,0.0,59,0.00,,,0.00,WUHU216HW,2013-02-07 10:40:00,
2013-02-07 05:45:00,44.6,31.2,30.14,North,0,0.0,0.0,59,0.00,,,0.00,WUHU216HW,2013-02-07 10:45:00,
2013-02-07 05:50:00,44.6,31.2,30.15,North,0,0.0,0.0,59,0.00,,,0.00,WUHU216HW,2013-02-07 10:50:00,
2013-02-07 05:56:00,44.6,31.2,30.15,North,0,0.0,0.0,59,0.00,,,0.00,WUHU216HW,2013-02-07 10:56:00,
2013-02-07 06:01:00,44.6,31.2,30.15,North,0,0.0,0.0,59,0.00,,,0.00,WUHU216HW,2013-02-07 11:01:00,
2013-02-07 06:06:00,44.6,31.2,30.15,North,0,0.0,0.0,59,0.00,,,0.00,WUHU216HW,2013-02-07 11:06:00,
2013-02-07 06:11:00,44.6,30.8,30.15,North,0,0.0,0.0,58,0.00,,,0.00,WUHU216HW,2013-02-07 11:11:00,
2013-02-07 06:16:00,44.8,31.0,30.15,North,0,0.0,0.0,58,0.00,,,0.00,WUHU216HW,2013-02-07 11:16:00,
2013-02-07 06:21:00,44.8,31.0,30.14,North,0,0.0,0.0,58,0.00,,,0.00,WUHU216HW,2013-02-07 11:21:00,
2013-02-07 06:26:00,44.8,31.0,30.15,North,0,0.0,0.0,58,0.00,,,0.00,WUHU216HW,2013-02-07 11:26:00,
2013-02-07 06:31:00,44.8,31.0,30.14,North,0,0.0,0.0,58,0.00,,,0.00,WUHU216HW,2013-02-07 11:31:00,
2013-02-07 06:36:00,44.6,30.8,30.15,North,0,0.0,0.0,58,0.00,,,0.00,WUHU216HW,2013-02-07 11:36:00,
2013-02-07 06:41:00,44.6,30.8,30.15,North,0,0.0,0.0,58,0.00,,,0.00,WUHU216HW,2013-02-07 11:41:00,
2013-02-07 06:46:00,44.6,30.8,30.15,North,0,0.0,0.0,58,0.00,,,0.00,WUHU216HW,2013-02-07 11:46:00,
2013-02-07 06:51:00,44.6,30.8,30.15,North,0,0.0,0.0,58,0.00,,,0.00,WUHU216HW,2013-02-07 11:51:00,
2013-02-07 06:56:00,44.6,30.8,30.15,North,0,0.0,0.0,58,0.00,,,0.00,WUHU216HW,2013-02-07 11:56:00,
2013-02-07 07:01:00,44.5,30.6,30.14,North,0,0.0,0.0,58,0.00,,,0.00,WUHU216HW,2013-02-07 12:01:00,
2013-02-07 07:06:00,44.5,30.6,30.15,North,0,0.0,0.0,58,0.00,,,0.00,WUHU216HW,2013-02-07 12:06:00,
2013-02-07 07:11:00,44.3,30.4,30.15,North,0,0.0,0.0,58,0.00,,,0.00,WUHU216HW,2013-02-07 12:11:00,
2013-02-07 07:16:00,44.3,30.4,30.15,North,0,0.0,0.0,58,0.00,,,0.00,WUHU216HW,2013-02-07 12:16:00,
2013-02-07 07:22:00,44.1,30.7,30.15,North,0,0.0,0.0,59,0.00,,,0.00,WUHU216HW,2013-02-07 12:22:00,
2013-02-07 07:27:00,44.1,30.7,30.15,North,0,0.0,0.0,59,0.00,,,0.00,WUHU216HW,2013-02-07 12:27:00,
2013-02-07 07:32:00,44.1,30.7,30.15,North,0,0.0,0.0,59,0.00,,,0.00,WUHU216HW,2013-02-07 12:32:00,
2013-02-07 07:37:00,43.9,30.5,30.15,North,0,0.0,0.0,59,0.00,,,0.00,WUHU216HW,2013-02-07 12:37:00,
2013-02-07 07:42:00,44.1,31.1,30.15,North,0,0.0,0.0,60,0.00,,,0.00,WUHU216HW,2013-02-07 12:42:00,
2013-02-07 07:47:00,44.1,31.1,30.15,North,0,0.0,0.0,60,0.00,,,0.00,WUHU216HW,2013-02-07 12:47:00,
2013-02-07 07:52:00,44.1,31.5,30.15,North,0,0.0,0.0,61,0.00,,,0.00,WUHU216HW,2013-02-07 12:52:00,
2013-02-07 07:57:00,44.3,31.7,30.16,North,0,0.0,0.0,61,0.00,,,0.00,WUHU216HW,2013-02-07 12:57:00,
2013-02-07 08:02:00,44.3,31.7,30.16,North,0,0.0,0.0,61,0.00,,,0.00,WUHU216HW,2013-02-07 13:02:00,
2013-02-07 08:07:00,44.3,31.7,30.16,North,0,0.0,0.0,61,0.00,,,0.00,WUHU216HW,2013-02-07 13:07:00,
2013-02-07 08:12:00,44.3,32.0,30.16,North,0,0.0,0.0,62,0.00,,,0.00,WUHU216HW,2013-02-07 13:12:00,
2013-02-07 08:17:00,44.3,32.0,30.16,North,0,0.0,0.0,62,0.00,,,0.00,WUHU216HW,2013-02-07 13:17:00,
2013-02-07 08:22:00,44.3,32.0,30.17,North,0,0.0,0.0,62,0.00,,,0.00,WUHU216HW,2013-02-07 13:22:00,
2013-02-07 08:27:00,44.3,32.0,30.16,North,0,0.0,0.0,62,0.00,,,0.00,WUHU216HW,2013-02-07 13:27:00,
2013-02-07 08:32:00,44.3,32.5,30.16,North,0,0.0,0.0,63,0.00,,,0.00,WUHU216HW,2013-02-07 13:32:00,
2013-02-07 08:37:00,44.3,32.5,30.16,North,0,0.0,0.0,63,0.00,,,0.00,WUHU216HW,2013-02-07 13:37:00,
2013-02-07 08:42:00,44.3,32.5,30.16,North,0,0.0,0.0,63,0.00,,,0.00,WUHU216HW,2013-02-07 13:42:00,
2013-02-07 08:47:00,44.3,32.5,30.16,North,0,0.0,0.0,63,0.00,,,0.00,WUHU216HW,2013-02-07 13:47:00,
2013-02-07 08:52:00,44.5,32.7,30.17,North,0,0.0,0.0,63,0.00,,,0.00,WUHU216HW,2013-02-07 13:52:00,
2013-02-07 08:58:00,44.6,33.2,30.16,North,0,0.0,0.0,64,0.00,,,0.00,WUHU216HW,2013-02-07 13:58:00,
2013-02-07 09:03:00,44.5,33.0,30.16,North,0,0.0,0.0,64,0.00,,,0.00,WUHU216HW,2013-02-07 14:03:00,
2013-02-07 09:08:00,44.6,33.2,30.16,North,0,0.0,0.0,64,0.00,,,0.00,WUHU216HW,2013-02-07 14:08:00,
2013-02-07 09:13:00,44.6,33.6,30.15,North,0,0.0,0.0,65,0.00,,,0.00,WUHU216HW,2013-02-07 14:13:00,
2013-02-07 09:18:00,44.6,33.9,30.16,North,0,0.0,0.0,66,0.00,,,0.00,WUHU216HW,2013-02-07 14:18:00,
2013-02-07 09:23:00,44.8,33.8,30.16,North,0,0.0,0.0,65,0.00,,,0.00,WUHU216HW,2013-02-07 14:23:00,
2013-02-07 09:28:00,44.8,33.8,30.16,North,0,0.0,0.0,65,0.00,,,0.00,WUHU216HW,2013-02-07 14:28:00,
2013-02-07 09:33:00,44.8,34.1,30.16,North,0,0.0,0.0,66,0.00,,,0.00,WUHU216HW,2013-02-07 14:33:00,
2013-02-07 09:38:00,44.8,34.1,30.16,North,0,0.0,0.0,66,0.00,,,0.00,WUHU216HW,2013-02-07 14:38:00,
2013-02-07 09:43:00,45.0,34.3,30.16,North,0,0.0,0.0,66,0.00,,,0.00,WUHU216HW,2013-02-07 14:43:00,
2013-02-07 09:48:00,45.2,34.5,30.15,North,0,0.0,0.0,66,0.00,,,0.00,WUHU216HW,2013-02-07 14:48:00,
2013-02-07 09:53:00,45.2,34.5,30.15,North,0,0.0,0.0,66,0.00,,,0.00,WUHU216HW,2013-02-07 14:53:00,
2013-02-07 09:58:00,45.4,35.0,30.15,North,0,0.0,0.0,67,0.00,,,0.00,WUHU216HW,2013-02-07 14:58:00,
2013-02-07 10:03:00,45.4,35.0,30.15,North,0,0.0,0.0,67,0.00,,,0.00,WUHU216HW,2013-02-07 15:03:00,
2013-02-07 10:08:00,45.7,35.4,30.15,North,0,0.0,0.0,67,0.00,,,0.00,WUHU216HW,2013-02-07 15:08:00,
2013-02-07 10:13:00,45.7,35.4,30.14,North,0,0.0,0.0,67,0.00,,,0.00,WUHU216HW,2013-02-07 15:13:00,
2013-02-07 10:19:00,45.7,35.4,30.14,North,0,0.0,0.0,67,0.00,,,0.00,WUHU216HW,2013-02-07 15:19:00,
2013-02-07 10:24:00,45.9,35.9,30.14,North,0,0.0,0.0,68,0.00,,,0.00,WUHU216HW,2013-02-07 15:24:00,
2013-02-07 10:29:00,46.1,36.1,30.14,North,0,0.0,0.0,68,0.00,,,0.00,WUHU216HW,2013-02-07 15:29:00,
2013-02-07 10:34:00,46.3,36.3,30.14,North,0,0.0,0.0,68,0.00,,,0.00,WUHU216HW,2013-02-07 15:34:00,
2013-02-07 10:39:00,46.4,36.5,30.14,North,0,0.0,0.0,68,0.00,,,0.00,WUHU216HW,2013-02-07 15:39:00,
2013-02-07 10:44:00,46.4,36.5,30.14,North,0,0.0,0.0,68,0.00,,,0.00,WUHU216HW,2013-02-07 15:44:00,
2013-02-07 10:49:00,46.6,36.6,30.14,North,0,0.0,0.0,68,0.00,,,0.00,WUHU216HW,2013-02-07 15:49:00,
2013-02-07 10:54:00,47.0,37.0,30.14,North,0,0.0,0.0,68,0.00,,,0.00,WUHU216HW,2013-02-07 15:54:00,
2013-02-07 10:59:00,47.2,37.2,30.14,North,0,0.0,0.0,68,0.00,,,0.00,WUHU216HW,2013-02-07 15:59:00,
2013-02-07 11:04:00,47.3,37.3,30.14,North,0,0.0,0.0,68,0.00,,,0.00,WUHU216HW,2013-02-07 16:04:00,
2013-02-07 11:09:00,47.3,36.9,30.14,North,0,0.0,0.0,67,0.00,,,0.00,WUHU216HW,2013-02-07 16:09:00,
2013-02-07 11:14:00,47.3,36.9,30.14,North,0,0.0,0.0,67,0.00,,,0.00,WUHU216HW,2013-02-07 16:14:00,
2013-02-07 11:20:00,47.3,36.9,30.14,North,0,0.0,0.0,67,0.00,,,0.00,WUHU216HW,2013-02-07 16:20:00,
2013-02-07 11:25:00,47.5,37.1,30.14,North,0,0.0,0.0,67,0.00,,,0.00,WUHU216HW,2013-02-07 16:25:00,
2013-02-07 11:30:00,47.5,37.1,30.14,North,0,0.0,0.0,67,0.00,,,0.00,WUHU216HW,2013-02-07 16:30:00,
2013-02-07 11:35:00,47.5,37.1,30.14,North,0,0.0,0.0,67,0.00,,,0.00,WUHU216HW,2013-02-07 16:35:00,
2013-02-07 11:40:00,47.5,37.1,30.14,North,0,0.0,0.0,67,0.00,,,0.00,WUHU216HW,2013-02-07 16:40:00,
2013-02-07 11:45:00,47.3,36.9,30.14,North,0,0.0,0.0,67,0.00,,,0.00,WUHU216HW,2013-02-07 16:45:00,
2013-02-07 11:50:00,47.5,37.1,30.13,North,0,0.0,0.0,67,0.00,,,0.00,WUHU216HW,2013-02-07 16:50:00,
2013-02-07 11:55:00,47.5,37.1,30.12,North,0,0.0,0.0,67,0.00,,,0.00,WUHU216HW,2013-02-07 16:55:00,
2013-02-07 12:00:00,47.3,36.9,30.12,North,0,0.0,0.0,67,0.00,,,0.00,WUHU216HW,2013-02-07 17:00:00,
2013-02-07 12:05:00,47.3,36.9,30.12,North,0,0.0,0.0,67,0.00,,,0.00,WUHU216HW,2013-02-07 17:05:00,
2013-02-07 12:10:00,47.3,36.9,30.11,North,0,0.0,0.0,67,0.00,,,0.00,WUHU216HW,2013-02-07 17:10:00,
2013-02-07 12:15:00,47.5,37.1,30.10,North,0,0.0,0.0,67,0.00,,,0.00,WUHU216HW,2013-02-07 17:15:00,
2013-02-07 12:20:00,47.5,37.1,30.10,North,0,0.0,0.0,67,0.00,,,0.00,WUHU216HW,2013-02-07 17:20:00,
2013-02-07 12:26:00,47.5,37.1,30.10,North,0,0.0,0.0,67,0.00,,,0.00,WUHU216HW,2013-02-07 17:26:00,
2013-02-07 12:31:00,47.5,37.1,30.10,North,0,0.0,0.0,67,0.00,,,0.00,WUHU216HW,2013-02-07 17:31:00,
2013-02-07 12:36:00,47.5,37.1,30.10,North,0,0.0,0.0,67,0.00,,,0.00,WUHU216HW,2013-02-07 17:36:00,
2013-02-07 12:41:00,47.5,37.1,30.10,North,0,0.0,0.0,67,0.00,,,0.00,WUHU216HW,2013-02-07 17:41:00,
2013-02-07 12:46:00,47.5,37.1,30.09,North,0,0.0,0.0,67,0.00,,,0.00,WUHU216HW,2013-02-07 17:46:00,
2013-02-07 12:51:00,47.5,37.1,30.09,North,0,0.0,0.0,67,0.00,,,0.00,WUHU216HW,2013-02-07 17:51:00,
2013-02-07 12:56:00,47.7,37.3,30.08,North,0,0.0,0.0,67,0.00,,,0.00,WUHU216HW,2013-02-07 17:56:00,
2013-02-07 13:01:00,47.7,37.3,30.08,North,0,0.0,0.0,67,0.00,,,0.00,WUHU216HW,2013-02-07 18:01:00,
2013-02-07 13:06:00,47.7,37.3,30.08,North,0,0.0,0.0,67,0.00,,,0.00,WUHU216HW,2013-02-07 18:06:00,
2013-02-07 13:11:00,47.7,37.3,30.08,North,0,0.0,0.0,67,0.00,,,0.00,WUHU216HW,2013-02-07 18:11:00,
2013-02-07 13:16:00,47.7,37.3,30.07,North,0,0.0,0.0,67,0.00,,,0.00,WUHU216HW,2013-02-07 18:16:00,
2013-02-07 13:21:00,47.5,37.1,30.07,North,0,0.0,0.0,67,0.00,,,0.00,WUHU216HW,2013-02-07 18:21:00,
2013-02-07 13:26:00,47.5,37.4,30.07,North,0,0.0,0.0,68,0.00,,,0.00,WUHU216HW,2013-02-07 18:26:00,
2013-02-07 13:31:00,47.3,37.3,30.07,North,0,0.0,0.0,68,0.00,,,0.00,WUHU216HW,2013-02-07 18:31:00,
2013-02-07 13:36:00,47.5,37.4,30.07,North,0,0.0,0.0,68,0.00,,,0.00,WUHU216HW,2013-02-07 18:36:00,
2013-02-07 13:41:00,47.5,37.4,30.06,North,0,0.0,0.0,68,0.00,,,0.00,WUHU216HW,2013-02-07 18:41:00,
2013-02-07 13:46:00,47.5,37.4,30.07,North,0,0.0,0.0,68,0.00,,,0.00,WUHU216HW,2013-02-07 18:46:00,
2013-02-07 13:51:00,47.3,37.7,30.06,North,0,0.0,0.0,69,0.00,,,0.00,WUHU216HW,2013-02-07 18:51:00,
2013-02-07 13:56:00,47.2,37.5,30.06,North,0,0.0,0.0,69,0.00,,,0.00,WUHU216HW,2013-02-07 18:56:00,
2013-02-07 14:02:00,47.2,37.5,30.06,North,0,0.0,0.0,69,0.00,,,0.00,WUHU216HW,2013-02-07 19:02:00,
2013-02-07 14:07:00,47.2,37.9,30.06,North,0,0.0,0.0,70,0.00,,,0.00,WUHU216HW,2013-02-07 19:07:00,
2013-02-07 14:12:00,47.2,37.9,30.06,North,0,0.0,0.0,70,0.00,,,0.00,WUHU216HW,2013-02-07 19:12:00,
2013-02-07 14:17:00,47.2,38.3,30.06,North,0,0.0,0.0,71,0.00,,,0.00,WUHU216HW,2013-02-07 19:17:00,
2013-02-07 14:22:00,47.2,38.6,30.06,North,0,0.0,0.0,72,0.00,,,0.00,WUHU216HW,2013-02-07 19:22:00,
2013-02-07 14:27:00,46.8,38.3,30.05,North,0,0.0,0.0,72,0.00,,,0.00,WUHU216HW,2013-02-07 19:27:00,
2013-02-07 14:32:00,46.8,38.3,30.05,North,0,0.0,0.0,72,0.00,,,0.00,WUHU216HW,2013-02-07 19:32:00,
2013-02-07 14:37:00,46.6,38.1,30.05,North,0,0.0,0.0,72,0.00,,,0.00,WUHU216HW,2013-02-07 19:37:00,
2013-02-07 14:42:00,46.6,38.4,30.05,North,0,0.0,0.0,73,0.00,,,0.00,WUHU216HW,2013-02-07 19:42:00,
2013-02-07 14:47:00,46.6,38.8,30.05,North,0,0.0,0.0,74,0.00,,,0.00,WUHU216HW,2013-02-07 19:47:00,
2013-02-07 14:52:00,46.6,38.8,30.05,North,0,0.0,0.0,74,0.00,,,0.00,WUHU216HW,2013-02-07 19:52:00,
2013-02-07 14:57:00,46.4,38.6,30.05,North,0,0.0,0.0,74,0.00,,,0.00,WUHU216HW,2013-02-07 19:57:00,
2013-02-07 15:02:00,46.4,38.6,30.05,North,0,0.0,0.0,74,0.00,,,0.00,WUHU216HW,2013-02-07 20:02:00,
2013-02-07 15:07:00,46.4,38.6,30.04,North,0,0.0,0.0,74,0.00,,,0.00,WUHU216HW,2013-02-07 20:07:00,
2013-02-07 15:12:00,46.3,38.8,30.04,North,0,0.0,0.0,75,0.00,,,0.00,WUHU216HW,2013-02-07 20:12:00,
2013-02-07 15:17:00,46.3,38.8,30.04,North,0,0.0,0.0,75,0.00,,,0.00,WUHU216HW,2013-02-07 20:17:00,
2013-02-07 15:22:00,46.1,38.6,30.04,North,0,0.0,0.0,75,0.00,,,0.00,WUHU216HW,2013-02-07 20:22:00,
2013-02-07 15:27:00,46.1,38.6,30.04,North,0,0.0,0.0,75,0.00,,,0.00,WUHU216HW,2013-02-07 20:27:00,
2013-02-07 15:32:00,45.9,38.4,30.04,North,0,0.0,0.0,75,0.00,,,0.00,WUHU216HW,2013-02-07 20:32:00,
2013-02-07 15:38:00,45.7,38.3,30.04,North,0,0.0,0.0,75,0.00,,,0.00,WUHU216HW,2013-02-07 20:38:00,
2013-02-07 15:43:00,45.7,38.3,30.04,North,0,0.0,0.0,75,0.00,,,0.00,WUHU216HW,2013-02-07 20:43:00,
2013-02-07 15:48:00,45.7,38.6,30.04,North,0,0.0,0.0,76,0.00,,,0.00,WUHU216HW,2013-02-07 20:48:00,
2013-02-07 15:53:00,45.7,38.6,30.04,North,0,0.0,0.0,76,0.00,,,0.00,WUHU216HW,2013-02-07 20:53:00,
2013-02-07 15:58:00,45.7,38.3,30.04,North,0,0.0,0.0,75,0.00,,,0.00,WUHU216HW,2013-02-07 20:58:00,
2013-02-07 16:03:00,45.7,38.6,30.04,North,0,0.0,0.0,76,0.00,,,0.00,WUHU216HW,2013-02-07 21:03:00,
2013-02-07 16:08:00,45.5,38.4,30.03,North,0,0.0,0.0,76,0.00,,,0.00,WUHU216HW,2013-02-07 21:08:00,
2013-02-07 16:13:00,45.4,37.9,30.03,North,0,0.0,0.0,75,0.00,,,0.00,WUHU216HW,2013-02-07 21:13:00,
2013-02-07 16:18:00,45.4,37.9,30.03,North,0,0.0,0.0,75,0.00,,,0.00,WUHU216HW,2013-02-07 21:18:00,
2013-02-07 16:23:00,45.4,38.3,30.02,North,0,0.0,0.0,76,0.00,,,0.00,WUHU216HW,2013-02-07 21:23:00,
2013-02-07 16:28:00,45.4,38.3,30.02,North,0,0.0,0.0,76,0.00,,,0.00,WUHU216HW,2013-02-07 21:28:00,
2013-02-07 16:33:00,45.2,38.1,30.02,North,0,0.0,0.0,76,0.00,,,0.00,WUHU216HW,2013-02-07 21:33:00,
2013-02-07 16:38:00,45.2,38.1,30.02,North,0,0.0,0.0,76,0.00,,,0.00,WUHU216HW,2013-02-07 21:38:00,
2013-02-07 16:43:00,45.2,38.4,30.01,North,0,0.0,0.0,77,0.00,,,0.00,WUHU216HW,2013-02-07 21:43:00,
2013-02-07 16:48:00,45.0,38.3,30.00,North,0,0.0,0.0,77,0.00,,,0.00,WUHU216HW,2013-02-07 21:48:00,
2013-02-07 16:53:00,45.0,38.3,30.00,North,0,0.0,0.0,77,0.00,,,0.00,WUHU216HW,2013-02-07 21:53:00,
2013-02-07 16:58:00,44.8,38.1,30.00,North,0,0.0,0.0,77,0.00,,,0.00,WUHU216HW,2013-02-07 21:58:00,
2013-02-07 17:03:00,44.8,38.1,30.00,North,0,0.0,0.0,77,0.00,,,0.00,WUHU216HW,2013-02-07 22:03:00,
2013-02-07 17:08:00,44.8,38.1,29.99,North,0,0.0,0.0,77,0.00,,,0.00,WUHU216HW,2013-02-07 22:08:00,
2013-02-07 17:14:00,44.6,38.2,29.99,North,0,0.0,0.0,78,0.00,,,0.00,WUHU216HW,2013-02-07 22:14:00,
2013-02-07 17:19:00,44.6,37.9,29.99,North,0,0.0,0.0,77,0.00,,,0.00,WUHU216HW,2013-02-07 22:19:00,
2013-02-07 17:24:00,44.6,38.2,29.98,North,0,0.0,0.0,78,0.00,,,0.00,WUHU216HW,2013-02-07 22:24:00,
2013-02-07 17:29:00,44.6,38.2,29.99,North,0,0.0,0.0,78,0.00,,,0.00,WUHU216HW,2013-02-07 22:29:00,
2013-02-07 17:34:00,44.5,38.0,29.98,North,0,0.0,0.0,78,0.00,,,0.00,WUHU216HW,2013-02-07 22:34:00,
2013-02-07 17:39:00,44.5,38.0,29.98,North,0,0.0,0.0,78,0.00,,,0.00,WUHU216HW,2013-02-07 22:39:00,
2013-02-07 17:44:00,44.3,37.8,29.98,North,0,0.0,0.0,78,0.00,,,0.00,WUHU216HW,2013-02-07 22:44:00,
2013-02-07 17:49:00,44.3,37.8,29.98,North,0,0.0,0.0,78,0.00,,,0.00,WUHU216HW,2013-02-07 22:49:00,
2013-02-07 17:54:00,44.3,37.8,29.98,North,0,0.0,0.0,78,0.00,,,0.00,WUHU216HW,2013-02-07 22:54:00,
2013-02-07 17:59:00,44.1,37.7,29.98,North,0,0.0,0.0,78,0.00,,,0.00,WUHU216HW,2013-02-07 22:59:00,
2013-02-07 18:04:00,43.9,37.5,29.98,North,0,0.0,0.0,78,0.00,,,0.00,WUHU216HW,2013-02-07 23:04:00,
2013-02-07 18:09:00,43.9,37.8,29.97,North,0,0.0,0.0,79,0.00,,,0.00,WUHU216HW,2013-02-07 23:09:00,
2013-02-07 18:14:00,43.7,37.6,29.97,North,0,0.0,0.0,79,0.00,,,0.00,WUHU216HW,2013-02-07 23:14:00,
2013-02-07 18:19:00,43.6,37.4,29.97,North,0,0.0,0.0,79,0.00,,,0.00,WUHU216HW,2013-02-07 23:19:00,
2013-02-07 18:24:00,43.6,37.4,29.97,North,0,0.0,0.0,79,0.00,,,0.00,WUHU216HW,2013-02-07 23:24:00,
2013-02-07 18:29:00,43.6,37.4,29.97,North,0,0.0,0.0,79,0.00,,,0.00,WUHU216HW,2013-02-07 23:29:00,
2013-02-07 18:34:00,43.6,37.4,29.97,North,0,0.0,0.0,79,0.00,,,0.00,WUHU216HW,2013-02-07 23:34:00,
2013-02-07 18:39:00,43.6,37.4,29.97,North,0,0.0,0.0,79,0.00,,,0.00,WUHU216HW,2013-02-07 23:39:00,
2013-02-07 18:44:00,43.6,37.4,29.98,North,0,0.0,0.0,79,0.00,,,0.00,WUHU216HW,2013-02-07 23:44:00,
2013-02-07 18:49:00,43.6,37.4,29.97,North,0,0.0,0.0,79,0.00,,,0.00,WUHU216HW,2013-02-07 23:49:00,
2013-02-07 18:55:00,43.4,37.3,29.97,North,0,0.0,0.0,79,0.00,,,0.00,WUHU216HW,2013-02-07 23:55:00,
2013-02-07 19:00:00,43.2,37.1,29.97,North,0,0.0,0.0,79,0.00,,,0.00,WUHU216HW,2013-02-08 00:00:00,
2013-02-07 19:05:00,43.2,37.1,29.97,North,0,0.0,0.0,79,0.00,,,0.00,WUHU216HW,2013-02-08 00:05:00,
2013-02-07 19:10:00,43.0,36.9,29.97,North,0,0.0,0.0,79,0.00,,,0.00,WUHU216HW,2013-02-08 00:10:00,
2013-02-07 19:15:00,43.0,37.3,29.98,North,0,0.0,0.0,80,0.00,,,0.00,WUHU216HW,2013-02-08 00:15:00,
2013-02-07 19:20:00,42.8,37.1,29.98,North,0,0.0,0.0,80,0.00,,,0.00,WUHU216HW,2013-02-08 00:20:00,
2013-02-07 19:25:00,42.8,37.1,29.97,North,0,0.0,0.0,80,0.00,,,0.00,WUHU216HW,2013-02-08 00:25:00,
2013-02-07 19:30:00,42.8,37.1,29.98,North,0,0.0,0.0,80,0.00,,,0.00,WUHU216HW,2013-02-08 00:30:00,
2013-02-07 19:35:00,42.8,37.1,29.97,North,0,0.0,0.0,80,0.00,,,0.00,WUHU216HW,2013-02-08 00:35:00,
2013-02-07 19:41:00,42.8,37.1,29.97,North,0,0.0,0.0,80,0.00,,,0.00,WUHU216HW,2013-02-08 00:41:00,
2013-02-07 19:46:00,42.8,37.1,29.97,North,0,0.0,0.0,80,0.00,,,0.00,WUHU216HW,2013-02-08 00:46:00,
2013-02-07 19:51:00,42.8,37.1,29.96,North,0,0.0,0.0,80,0.00,,,0.00,WUHU216HW,2013-02-08 00:51:00,
2013-02-07 19:56:00,42.7,36.9,29.95,North,0,0.0,0.0,80,0.00,,,0.00,WUHU216HW,2013-02-08 00:56:00,
2013-02-07 20:01:00,42.7,37.2,29.95,North,0,0.0,0.0,81,0.00,,,0.00,WUHU216HW,2013-02-08 01:01:00,
2013-02-07 20:06:00,42.7,37.2,29.95,North,0,0.0,0.0,81,0.00,,,0.00,WUHU216HW,2013-02-08 01:06:00,
2013-02-07 20:11:00,42.5,37.0,29.95,North,0,0.0,0.0,81,0.00,,,0.00,WUHU216HW,2013-02-08 01:11:00,
2013-02-07 20:16:00,42.5,37.0,29.95,North,0,0.0,0.0,81,0.00,,,0.00,WUHU216HW,2013-02-08 01:16:00,
2013-02-07 20:21:00,42.5,37.0,29.94,North,0,0.0,0.0,81,0.00,,,0.00,WUHU216HW,2013-02-08 01:21:00,
2013-02-07 20:26:00,42.5,37.0,29.95,North,0,0.0,0.0,81,0.00,,,0.00,WUHU216HW,2013-02-08 01:26:00,
2013-02-07 20:31:00,42.3,36.8,29.95,North,0,0.0,0.0,81,0.00,,,0.00,WUHU216HW,2013-02-08 01:31:00,
2013-02-07 20:36:00,42.3,36.8,29.94,North,0,0.0,0.0,81,0.00,,,0.00,WUHU216HW,2013-02-08 01:36:00,
2013-02-07 20:41:00,42.3,36.8,29.94,North,0,0.0,0.0,81,0.00,,,0.00,WUHU216HW,2013-02-08 01:41:00,
2013-02-07 20:46:00,42.3,36.8,29.94,North,0,0.0,0.0,81,0.00,,,0.00,WUHU216HW,2013-02-08 01:46:00,
2013-02-07 20:51:00,42.5,37.0,29.94,North,0,0.0,0.0,81,0.00,,,0.00,WUHU216HW,2013-02-08 01:51:00,
2013-02-07 20:57:00,42.5,37.0,29.94,North,0,0.0,0.0,81,0.00,,,0.00,WUHU216HW,2013-02-08 01:57:00,
2013-02-07 21:02:00,42.5,37.0,29.94,North,0,0.0,0.0,81,0.00,,,0.00,WUHU216HW,2013-02-08 02:02:00,
2013-02-07 21:07:00,42.5,37.0,29.94,North,0,0.0,0.0,81,0.00,,,0.00,WUHU216HW,2013-02-08 02:07:00,
2013-02-07 21:12:00,42.3,36.8,29.94,North,0,0.0,0.0,81,0.00,,,0.00,WUHU216HW,2013-02-08 02:12:00,
2013-02-07 21:17:00,42.5,37.4,29.93,North,0,0.0,0.0,82,0.00,,,0.00,WUHU216HW,2013-02-08 02:17:00,
2013-02-07 21:22:00,42.5,37.4,29.93,North,0,0.0,0.0,82,0.00,,,0.00,WUHU216HW,2013-02-08 02:22:00,
2013-02-07 21:27:00,42.5,37.4,29.93,North,0,0.0,0.0,82,0.00,,,0.00,WUHU216HW,2013-02-08 02:27:00,
2013-02-07 21:32:00,42.5,37.4,29.93,North,0,0.0,0.0,82,0.00,,,0.00,WUHU216HW,2013-02-08 02:32:00,
2013-02-07 21:37:00,42.3,37.2,29.92,North,0,0.0,0.0,82,0.00,,,0.00,WUHU216HW,2013-02-08 02:37:00,
2013-02-07 21:42:00,42.3,37.2,29.93,North,0,0.0,0.0,82,0.00,,,0.00,WUHU216HW,2013-02-08 02:42:00,
2013-02-07 21:47:00,42.3,37.2,29.92,North,0,0.0,0.0,82,0.00,,,0.00,WUHU216HW,2013-02-08 02:47:00,
2013-02-07 21:52:00,42.3,37.2,29.92,North,0,0.0,0.0,82,0.00,,,0.00,WUHU216HW,2013-02-08 02:52:00,
2013-02-07 21:57:00,42.3,37.4,29.91,North,0,0.0,0.0,83,0.00,,,0.00,WUHU216HW,2013-02-08 02:57:00,
2013-02-07 22:02:00,42.3,37.4,29.91,North,0,0.0,0.0,83,0.00,,,0.00,WUHU216HW,2013-02-08 03:02:00,
2013-02-07 22:08:00,42.3,37.4,29.91,North,0,0.0,0.0,83,0.00,,,0.00,WUHU216HW,2013-02-08 03:08:00,
2013-02-07 22:13:00,42.5,37.6,29.91,North,0,0.0,0.0,83,0.00,,,0.00,WUHU216HW,2013-02-08 03:13:00,
2013-02-07 22:18:00,42.5,37.6,29.91,North,0,0.0,0.0,83,0.00,,,0.00,WUHU216HW,2013-02-08 03:18:00,
2013-02-07 22:23:00,42.5,37.6,29.91,North,0,0.0,0.0,83,0.00,,,0.00,WUHU216HW,2013-02-08 03:23:00,
2013-02-07 22:28:00,42.5,37.6,29.90,North,0,0.0,0.0,83,0.00,,,0.00,WUHU216HW,2013-02-08 03:28:00,
2013-02-07 22:33:00,42.5,37.6,29.90,North,0,0.0,0.0,83,0.00,,,0.00,WUHU216HW,2013-02-08 03:33:00,
2013-02-07 22:38:00,42.5,37.6,29.90,North,0,0.0,0.0,83,0.00,,,0.00,WUHU216HW,2013-02-08 03:38:00,
2013-02-07 22:43:00,42.5,37.6,29.89,North,0,0.0,0.0,83,0.00,,,0.00,WUHU216HW,2013-02-08 03:43:00,
2013-02-07 22:48:00,42.5,37.6,29.89,North,0,0.0,0.0,83,0.00,,,0.00,WUHU216HW,2013-02-08 03:48:00,
2013-02-07 22:53:00,42.5,37.6,29.89,North,0,0.0,0.0,83,0.00,,,0.00,WUHU216HW,2013-02-08 03:53:00,
2013-02-07 22:58:00,42.5,38.0,29.89,North,0,0.0,0.0,84,0.00,,,0.00,WUHU216HW,2013-02-08 03:58:00,
2013-02-07 23:03:00,42.3,37.4,29.89,North,0,0.0,0.0,83,0.00,,,0.00,WUHU216HW,2013-02-08 04:03:00,
2013-02-07 23:08:00,42.3,37.4,29.88,North,0,0.0,0.0,83,0.00,,,0.00,WUHU216HW,2013-02-08 04:08:00,
2013-02-07 23:14:00,42.3,37.4,29.88,North,0,0.0,0.0,83,0.00,,,0.00,WUHU216HW,2013-02-08 04:14:00,
2013-02-07 23:19:00,42.5,37.6,29.88,North,0,0.0,0.0,83,0.00,,,0.00,WUHU216HW,2013-02-08 04:19:00,
2013-02-07 23:24:00,42.5,37.6,29.88,North,0,0.0,0.0,83,0.00,,,0.00,WUHU216HW,2013-02-08 04:24:00,
2013-02-07 23:29:00,42.5,37.6,29.87,North,0,0.0,0.0,83,0.00,,,0.00,WUHU216HW,2013-02-08 04:29:00,
2013-02-07 23:34:00,42.3,37.4,29.87,North,0,0.0,0.0,83,0.00,,,0.00,WUHU216HW,2013-02-08 04:34:00,
2013-02-07 23:39:00,42.3,37.8,29.87,North,0,0.0,0.0,84,0.00,,,0.00,WUHU216HW,2013-02-08 04:39:00,
2013-02-07 23:44:00,42.3,37.4,29.87,North,0,0.0,0.0,83,0.00,,,0.00,WUHU216HW,2013-02-08 04:44:00,
2013-02-07 23:49:00,42.3,37.4,29.86,North,0,0.0,0.0,83,0.00,,,0.00,WUHU216HW,2013-02-08 04:49:00,
2013-02-07 23:54:00,42.1,37.6,29.86,North,0,0.0,0.0,84,0.00,,,0.00,WUHU216HW,2013-02-08 04:54:00,
2013-02-07 23:59:00,42.1,37.6,29.86,North,0,0.0,0.0,84,0.00,,,0.00,WUHU216HW,2013-02-08 04:59:00,